Reflectivity
-20 -20 -20 -20 -20 -20 -19 -4 -20 -15 -9 -20 -20 -20 -20 -20 -20 -20 -20 0 6 15 12 -20 -20 -18 -20 -20 -20 -8 -20 -20 -20 -20 -20 -20 -20 -20 -20 -20 -20 -20 -20 -20 -20 -20 -20
-20 -11 -20 -20 -20 -20 -20 -20 -20 -20 -20 -20 -20 -20 -20 -20 -20 -20 -20 -20 -1 -4 8 2 -20 -20 -20 -20 -20 -19 -20 -20 -20 -20 -20 -20 -20 -20 -20 -20 -20 -20 -20 -20 -20 -20 -20
-1 8 -3 -20 -20 -20 -20 -20 -20 -20 -20 -20 -20 -20 -20 -20 -20 -20 -20 -20 -20 -20 8 1 -20 -20 -20 -20 -20 -20 -20 -20 -20 -20 -20 -20 -20 -20 -20 -20 -20 -20 -20 -20 -20 -20 -20
-20 -20 -14 -7 -11 -14 -19 -20 -20 -6 -6 -18 -20 -20 -20 -20 -20 -20 -20 -20 7 -20 -15 -20 -20 -20 -20 -20 -20 -20 -20 -20 -20 -20 -20 -20 -20 -20 -20 -20 -20 -20 -20 -20 -20 -20 -20
-12 -8 -20 -8 -16 -20 -20 -20 -20 -20 1 -16 -20 -20 -20 -20 -20 -20 -20 2 1 6 3 -4 -20 -20 -20 -20 -20 -20 -9 -20 -20 -20 -20 -20 -20 -20 -20 -20 -20 -20 -20 -20 -20 -20 -20
-14 -6 -20 -20 -5 -5 -2 -4 -2 6 -11 -20 -20 -20 -20 -20 -20 -5 4 -7 -3 -19 -15 -20 -20 -20 -20 -20 -20 -20 -20 -20 -20 -20 -20 -20 -20 -20 -20 -20 -20 -20 -20 -20 -20 -20 -20
-20 -20 -20 0 -20 -5 4 6 8 -7 -20 -20 -20 -20 -20 -20 6 3 -13 -20 -20 -20 -20 -20 -20 -20 -20 -20 -20 -20 -20 -20 -20 -20 -20 -20 -20 -20 -20 -20 -20 -20 -20 -20 -20 -20 -20
-10 10 -5 -14 -20 -20 -11 0 -20 -20 -20 -20 -20 -20 -20 -20 9 1 -8 1 -20 -20 -17 -20 -20 -20 -20 -20 -20 -20 -20 -20 -20 -20 -20 -20 -20 -20 -20 -20 -20 -20 -20 -20 -20 -20 -20
-6 12 12 -4 -6 -20 -20 -6 3 -20 -20 -20 -20 -20 -20 -20 10 7 -5 -12 -20 -20 -20 -20 -20 -20 -20 -20 -20 -20 -20 -20 -20 -20 -20 -20 -20 -20 -20 -20 -20 -20 -20 -20 -20 -20 -20
-19 -20 10 -19 -20 -20 -18 -13 -13 -20 -20 -20 -20 -20 -20 -20 -14 -1 11 -20 -20 -20 -20 -20 -20 -20 -20 -20 -20 -20 -20 -20 -20 -20 -20 -20 -20 -20 -20 -20 -20 -20 -20 -13 -15 -10 -20
-20 9 -20 -20 -20 -20 -20 -20 -20 -20 -20 -20 -20 -20 -20 10 10 -3 -19 -7 -20 -18 -20 -20 -20 -20 -20 -20 -20 -20 -20 -20 -20 -20 -20 -20 -20 -20 -20 -20 -20 -20 -20 -20 -20 -20 -19
-20 2 -9 -20 -20 -5 -20 -1 -20 -20 -20 -20 -20 -20 -14 -20 -8 -2 -13 -20 -18 -18 -20 -20 -20 -20 -20 -20 -20 -20 -20 -20 -20 -20 -20 -20 -20 -20 -20 -20 -20 -7 -15 -6 -5 -20 -20
-20 -20 -20 -20 -8 10 -13 -20 -20 -20 -20 -20 -20 -20 9 6 11 -10 3 17 -17 -19 -20 -20 -20 -20 -20 -20 -20 -20 -20 -20 -20 -20 -20 -20 -20 -20 -9 -3 -20 -3 1 -20 -20 -20 -20
9 16 12 -13 -20 10 -18 -20 -20 -20 -20 -20 -20 -20 -20 -18 -14 7 16 18 -20 -20 -20 -20 -20 -20 -20 -20 -20 -20 -20 -20 -20 -20 -20 -20 -20 -20 -20 -20 -20 -14 2 -20 -20 -20 -20
8 -20 -20 -16 -15 8 10 -20 -20 -20 -20 -20 -20 -20 8 5 13 22 21 15 -20 -20 -20 -20 -20 -20 -20 -20 -20 -20 -20 -20 -20 -20 -20 -20 -20 -20 -20 -20 -5 -20 -20 -13 -18 -20 -20
0 -17 -20 -4 -2 -0 11 10 -20 -20 -20 -20 -10 -9 -15 4 16 24 21 2 -20 -20 -20 -20 -20 -20 -20 -20 -20 -20 -20 -20 -20 -20 -20 -14 -14 -20 -20 -20 -20 -20 -20 -20 -20 -16 -13
12 -11 3 -17 -10 6 10 8 -20 -20 -20 -14 4 -1 -20 -14 21 21 24 19 -20 -20 -20 -20 -20 -20 -20 -20 -20 -20 -20 -18 23 -17 -20 -20 -20 -20 -20 -20 -20 -20 -19 1 -15 -12 -17
-16 -18 -0 -19 -20 -20 -20 -20 -20 -20 -20 -20 10 9 -20 19 32 39 17 -16 -20 -20 -20 -20 -20 -20 -20 -20 -20 -20 -20 10 25 -20 -20 -20 -20 -20 -20 -20 -20 -20 -20 -16 12 -19 -20
5 -20 -9 -20 -20 -20 -20 -20 -19 -20 -20 -15 17 -16 -2 14 25 5 -15 -20 -20 -20 -20 -12 -13 -20 22 -20 -3 -20 -20 -20 -20 -20 -20 -20 -19 -20 -20 -20 -20 -20 -20 -10 6 -6 -6
-5 -20 -5 -18 -20 -20 -20 -20 -20 -13 -20 -15 29 12 17 21 23 13 -10 -20 -4 -14 -20 -14 -11 8 20 -20 -20 -20 -20 -19 -20 -20 -20 -20 -20 -20 -15 -9 -13 -20 -20 -20 -17 -17 -20
9 9 4 -18 2 2 -20 -13 -19 8 -20 15 32 25 -5 4 12 14 5 -20 -20 0 7 -10 -4 16 -17 -20 -20 -20 -20 -20 -20 -20 -20 -20 -20 -20 -20 -20 10 -14 -20 -20 -20 -20 -20
10 8 -3 -20 8 -20 -19 2 14 4 22 21 25 36 19 -19 -20 -17 11 13 -10 -20 11 9 -20 -20 17 -20 -20 -19 7 8 -20 -20 1 -20 -20 -20 -20 -20 -20 -5 -20 -20 -20 -20 -13
14 15 -6 -16 13 -13 -5 7 -20 18 25 24 12 25 34 -4 -12 -18 7 17 -18 7 -8 -13 -20 14 14 -20 25 36 -6 -8 -20 -20 -20 -20 -20 -20 -20 -20 -20 -20 -20 -20 -20 -20 -20
13 13 16 0 17 13 13 -3 1 19 20 21 9 2 22 -7 15 -19 -20 -20 -17 0 20 -19 -12 1 -20 -20 18 27 18 -20 -20 -19 -20 -20 -20 -20 -20 -20 -20 -20 -20 -20 -20 -20 -20
-17 9 10 11 17 1 18 13 -18 21 -20 37 24 28 21 22 -14 -13 -16 -0 -18 22 24 7 -1 -20 -18 10 19 16 -4 -20 -20 -20 -20 -20 -20 -20 -20 -20 -20 -20 -20 -20 -20 -20 -20
7 17 5 11 5 -20 -20 -20 -14 16 6 39 6 27 28 14 3 -20 -5 0 24 38 28 -7 -20 -10 3 19 0 -12 -20 -20 -20 -20 -20 -20 -20 -20 -20 -20 -20 -20 -20 -20 -20 -20 -20
16 14 14 13 4 8 1 11 -5 13 15 34 32 12 26 18 -17 -9 -20 -1 29 25 6 -6 -20 -0 -18 -16 -20 -20 -20 -20 -20 -20 -20 -20 -20 -20 -20 -20 -17 -20 -20 -20 -20 -20 -20
28 22 22 22 13 16 16 21 14 23 34 30 10 17 10 3 21 6 4 -17 30 24 -0 7 3 -9 -6 -20 -20 -20 -20 -20 -20 -20 -20 -20 -20 -20 -20 -15 5 -20 -20 -20 -12 -20 -20
-13 -13 18 29 17 -20 12 13 17 36 25 30 26 -11 19 36 33 29 25 25 27 12 -4 2 -2 7 4 -18 -20 -20 -20 -20 -20 -20 -20 -6 -20 8 -20 -20 -20 -20 -20 -19 -20 -20 -17
Wind_Speed
0 3 3 3 1 4 5 4 5 6 6 6 7 7 7 9 9 10 11 10 10 8 6 6 9 13 9 4 13 6 8 6 2 1 5 7 7 5 6 6 8 10 8 11 12 11 10
1 3 3 1 0 4 6 4 4 5 5 6 7 8 8 8 8 8 9 10 11 9 5 4 7 11 3 13 10 14 9 7 5 6 6 7 6 8 8 7 7 10 17 18 18 16 13
3 2 3 1 2 4 6 5 2 4 4 6 7 9 9 9 10 9 9 9 10 9 9 6 5 5 6 21 9 15 9 12 7 9 9 8 6 4 7 9 11 9 14 18 8 8 14
6 6 6 5 5 5 7 7 6 5 6 6 6 8 9 10 10 11 11 8 9 10 8 4 5 4 10 11 12 20 18 16 10 8 7 8 6 7 4 7 10 11 9 12 6 15 18
9 10 8 8 8 6 8 8 8 6 7 6 6 8 9 10 10 11 9 5 11 10 5 4 3 4 13 14 7 14 14 14 10 12 7 9 6 7 5 6 6 7 7 11 16 15 20
12 12 11 9 8 7 9 8 8 7 4 6 7 8 10 9 9 5 13 9 8 5 4 6 6 4 9 6 7 4 9 10 8 6 5 7 4 2 1 4 7 7 8 10 16 8 19
15 14 13 11 8 9 10 8 6 4 5 6 8 9 9 8 4 15 10 4 1 3 6 12 11 8 2 6 8 7 7 9 8 7 8 8 6 7 13 14 15 13 16 19 17 14 11
11 14 14 12 11 11 11 9 7 6 5 7 8 8 9 8 5 14 3 3 5 3 12 20 23 23 19 13 9 17 12 5 6 8 7 8 17 12 14 14 16 16 18 20 19 18 15
11 9 12 12 12 12 13 12 8 6 6 7 7 8 8 8 7 7 4 5 7 8 6 9 22 13 13 17 16 22 11 14 13 10 11 18 9 12 17 19 19 19 19 18 20 10 10
13 13 14 15 16 14 13 11 10 9 8 7 7 8 8 8 2 5 4 9 8 2 5 8 8 8 11 12 10 24 21 15 8 17 16 18 15 17 19 19 15 21 12 17 16 11 6
14 14 13 13 15 15 13 12 10 10 10 9 7 8 8 6 3 4 4 6 5 1 5 5 3 5 10 16 3 4 19 10 20 18 7 26 20 18 21 22 17 20 10 13 12 11 9
14 14 14 15 15 14 13 11 10 11 10 9 9 9 7 5 4 2 9 8 2 3 13 6 8 7 6 13 6 3 5 3 13 16 13 21 17 15 19 20 7 9 5 5 6 2 5
16 15 14 15 16 15 13 12 11 11 10 10 10 11 5 3 3 10 9 3 3 7 7 6 8 9 12 11 12 10 10 8 6 5 7 14 18 20 17 15 3 3 3 4 5 1 12
16 14 14 15 16 15 12 12 12 10 10 9 11 11 8 8 10 16 6 3 8 12 16 6 1 8 8 10 11 11 9 11 12 12 6 7 9 2 7 5 7 6 6 6 4 3 5
16 15 15 15 15 14 13 13 12 10 9 8 11 3 4 7 14 12 10 10 11 9 7 13 20 19 16 16 7 7 9 12 13 10 10 2 4 4 4 2 1 1 6 7 2 5 6
17 16 17 14 13 13 12 12 9 10 8 6 1 4 4 2 18 10 9 17 16 12 15 19 14 8 14 11 9 8 7 4 6 9 6 7 7 3 3 4 3 4 0 4 2 3 5
18 17 16 15 14 12 12 11 9 10 8 6 2 4 1 4 11 9 11 13 18 17 17 9 18 18 17 11 7 3 1 7 10 5 8 4 5 0 3 3 4 2 2 2 5 5 3
19 19 17 16 16 14 13 13 12 10 6 9 5 6 1 10 8 3 7 12 10 17 13 21 12 16 14 9 7 6 8 9 17 2 4 1 5 3 7 4 4 4 6 10 6 6 4
20 19 20 19 18 17 16 15 13 11 6 1 4 3 1 2 8 6 11 15 12 13 10 12 12 15 12 3 4 2 5 4 0 3 5 5 1 1 5 3 2 5 4 5 2 4 4
21 21 21 22 20 18 17 16 15 14 12 5 2 4 2 1 1 7 10 17 20 8 16 16 15 9 7 5 3 3 6 2 1 5 8 6 4 6 6 1 1 3 7 8 5 4 4
22 22 21 21 21 20 19 17 17 17 17 5 4 6 6 7 14 6 10 6 22 16 13 5 6 9 3 5 8 8 4 3 3 5 3 5 3 3 6 9 8 8 15 8 7 7 7
23 22 21 22 22 22 21 19 19 19 20 5 4 4 3 2 12 15 7 9 19 18 12 8 11 10 8 7 10 5 3 4 4 2 5 2 2 3 2 7 10 11 10 11 7 5 7
23 23 22 22 23 23 23 21 21 19 21 4 3 3 3 4 9 11 17 15 15 13 10 14 15 6 7 9 3 2 5 8 8 8 7 5 4 3 3 2 5 5 4 3 6 6 3
23 22 23 23 23 23 23 21 23 22 26 4 3 2 2 5 9 16 12 21 17 20 12 10 14 7 5 8 3 4 5 7 3 8 6 7 5 3 2 2 3 2 9 9 4 10 7
22 23 23 24 23 23 22 20 23 23 17 7 3 4 4 3 7 13 18 16 18 13 12 12 8 7 7 10 4 2 2 3 2 2 5 5 4 2 3 3 4 3 6 4 4 2 8
23 25 26 24 23 23 23 22 22 21 15 11 3 3 3 2 8 12 16 7 3 5 3 4 8 18 10 3 3 6 5 6 4 4 5 5 5 5 1 3 5 2 4 7 6 4 5
23 21 24 24 27 27 25 23 22 21 25 6 3 6 4 4 4 11 11 10 6 5 5 4 3 4 4 2 2 3 4 7 6 8 5 3 2 5 2 3 1 3 3 2 3 4 4
22 23 31 21 15 20 23 20 19 22 25 8 2 7 2 2 6 3 4 10 8 7 8 8 5 2 1 3 4 4 2 3 5 1 6 6 5 4 2 2 6 5 3 3 1 3 4
11 13 12 13 20 25 23 19 23 24 23 12 1 3 3 2 4 6 8 4 9 7 8 4 5 6 5 3 2 3 2 3 5 2 1 1 5 4 3 2 4 5 5 4 5 5 3
Wind_Direction
37 305 294 305 67 342 335 345 359 345 341 342 337 332 329 323 322 305 280 250 245 228 239 283 315 330 344 266 250 243 187 199 208 209 249 277 296 282 248 267 311 284 282 297 305 305 285
277 302 291 160 321 335 321 332 5 354 351 1 348 328 318 312 309 312 308 260 225 214 210 262 304 323 229 263 259 290 183 180 222 205 251 255 261 290 289 279 283 292 296 292 296 294 289
271 275 297 313 298 315 311 290 299 324 334 331 331 328 328 322 313 307 299 297 228 189 183 224 285 298 248 245 268 285 265 278 209 211 254 265 286 294 318 313 278 295 308 302 274 276 281
263 270 269 270 265 282 286 283 265 274 294 299 308 313 313 318 316 307 302 302 210 167 193 222 287 299 250 256 254 259 266 269 250 239 257 287 304 294 271 287 299 297 292 285 172 257 259
255 258 265 275 279 255 267 271 263 257 274 294 309 314 313 311 316 314 315 291 144 157 195 233 283 198 263 293 220 246 232 251 265 236 218 249 258 232 279 275 308 231 254 251 279 256 267
243 254 255 269 271 266 272 269 258 260 282 298 298 310 309 311 320 43 101 116 141 132 233 235 264 336 260 236 209 233 182 207 231 272 237 213 247 189 313 170 233 234 251 278 290 304 306
243 245 249 257 270 278 285 294 281 280 300 299 302 306 309 303 343 125 119 105 297 266 235 204 195 226 222 286 341 183 195 187 188 235 225 210 196 199 218 227 233 255 264 272 286 298 290
276 246 242 248 261 272 278 279 287 288 287 292 301 305 303 300 304 180 195 206 267 311 286 232 250 243 247 269 272 270 305 205 191 227 241 267 241 217 239 251 261 269 276 280 285 289 285
246 240 248 250 252 263 269 270 268 268 280 289 296 301 308 298 291 176 214 214 338 330 269 260 227 233 230 220 242 244 240 251 236 214 235 240 252 233 243 254 255 256 256 266 268 295 325
242 244 240 244 254 260 261 266 269 268 269 279 291 297 300 300 187 149 212 229 265 319 295 276 212 246 211 204 268 230 224 230 229 244 227 247 258 262 275 276 288 287 295 302 315 355 303
245 243 237 243 252 253 252 256 259 266 263 270 282 286 289 211 7 176 182 164 231 52 331 239 159 147 143 171 242 62 209 195 229 242 234 261 262 262 268 265 272 280 344 338 317 283 292
241 246 246 247 245 246 251 250 258 258 256 261 276 281 291 259 184 251 159 147 102 84 244 274 145 170 151 199 238 317 30 199 220 235 239 258 260 256 257 255 262 306 300 283 294 204 267
244 245 247 249 247 239 241 253 261 255 250 261 274 280 264 251 215 161 150 122 126 208 240 227 217 180 190 197 210 214 229 238 205 223 235 262 258 254 252 255 14 320 354 344 324 154 252
248 245 251 252 246 240 239 251 262 256 244 265 280 292 239 212 191 157 153 147 211 222 224 280 336 267 246 200 205 217 209 227 240 224 237 266 302 290 4 222 170 216 175 156 254 279 305
244 246 252 251 244 244 240 245 257 253 246 274 299 258 246 177 161 166 169 199 216 213 237 223 260 280 273 279 190 205 228 225 212 207 226 200 263 37 10 169 179 338 233 178 212 301 283
241 241 243 244 246 244 248 247 250 250 245 281 296 306 238 295 160 167 187 222 234 233 274 293 278 247 274 259 266 261 215 196 256 211 174 214 255 58 318 26 326 170 163 86 68 241 254
243 241 241 239 238 238 243 251 253 259 237 277 258 261 170 232 159 191 205 228 237 244 260 259 264 267 282 262 228 134 234 320 326 322 78 86 113 315 92 199 193 253 231 237 154 157 224
236 242 240 238 237 240 245 247 250 247 251 276 199 228 35 158 191 243 196 216 232 246 238 244 264 268 270 294 265 166 193 128 302 6 45 341 124 192 229 261 12 321 224 224 191 239 218
240 237 240 239 240 239 240 241 241 221 167 91 177 149 279 224 199 212 220 237 233 257 256 247 251 248 256 238 318 305 91 135 325 76 143 172 66 195 337 257 283 243 237 250 174 141 182
241 241 241 240 239 239 239 239 234 207 156 119 230 159 218 224 202 211 209 226 234 220 253 266 269 282 227 258 245 251 129 104 52 92 88 91 156 183 230 131 35 310 247 255 223 167 217
243 241 242 240 241 240 239 237 231 210 172 151 206 206 186 184 213 187 209 234 226 231 227 262 248 236 207 237 246 231 129 108 40 137 105 121 159 214 283 275 259 250 274 256 243 226 210
244 243 242 239 238 238 236 236 228 217 178 202 187 205 191 244 195 196 213 209 222 224 213 213 216 211 202 227 242 234 184 132 168 142 153 164 151 75 286 294 286 283 279 284 278 259 280
246 242 241 239 234 234 234 233 225 224 186 199 167 272 211 186 174 179 214 223 220 218 214 225 207 212 207 219 281 347 232 174 165 161 177 141 125 124 252 357 1 304 241 280 264 50 20
247 247 238 242 233 236 236 234 223 224 198 193 185 144 235 224 197 204 193 206 217 215 205 212 161 140 159 114 253 27 58 58 58 159 151 152 162 150 214 69 232 99 52 55 60 53 42
246 245 242 238 236 234 233 234 220 207 204 223 183 184 182 245 215 216 217 213 223 212 202 185 179 149 180 164 152 128 15 49 310 198 155 144 136 159 161 198 276 2 9 44 91 60 24
241 243 242 237 241 242 240 228 222 204 219 186 158 121 269 184 221 203 194 193 157 167 106 160 211 161 200 134 143 180 175 173 193 186 199 141 123 121 13 177 231 170 3 34 67 283 17
245 250 248 247 239 232 220 214 207 200 197 154 177 182 249 212 276 190 185 179 156 123 115 149 131 107 98 143 125 158 214 157 164 156 165 104 92 181 183 227 208 56 349 343 99 232 345
238 223 226 227 236 215 199 195 193 195 166 150 243 189 179 164 293 222 140 156 169 173 158 176 82 322 81 102 128 225 148 196 89 79 158 158 170 185 160 185 250 359 280 205 89 71 51
188 251 171 237 227 191 184 193 175 166 164 155 234 153 120 178 233 106 135 204 181 218 129 181 162 162 179 125 201 101 41 37 133 183 100 92 158 120 116 179 98 44 80 51 71 107 86